• In Germany
  • List of Countries
  • For 7 days
  • Water Temperature
  • Satellite Maps
  • Weather Map
  • Weather Widgets
  • user-avatar
    Login

    Hourly Weather Kitzbuhel

    Today, 25 April, Tuesday

    Time Temperature Precipitation Wind Pressure Humidity
    00:00 +3°C° 0 mm 3 mps 673 mmHg 92%
    01:00 +4°C° 0 mm 3 mps 672 mmHg 91%
    02:00 +3°C° 0 mm 3 mps 672 mmHg 91%
    03:00 +3°C° 0 mm 3 mps 671 mmHg 91%
    04:00 +3°C° 0 mm 3 mps 671 mmHg 91%
    05:00 +3°C° 0 mm 3 mps 671 mmHg 90%
    06:00 +4°C° 0 mm 3 mps 671 mmHg 89%
    07:00 +7°C° 0 mm 2 mps 671 mmHg 88%
    08:00 +8°C° 0 mm 2 mps 671 mmHg 85%
    09:00 +9°C° 0 mm 2 mps 671 mmHg 83%
    10:00 +10°C° 0 mm 2 mps 671 mmHg 81%
    11:00 +12°C° 0.4 mm 2 mps 671 mmHg 81%
    12:00 +12°C° 0.4 mm 2 mps 671 mmHg 82%
    13:00 +12°C° 0.4 mm 2 mps 671 mmHg 82%
    14:00 +12°C° 0.9 mm 2 mps 670 mmHg 85%
    15:00 +10°C° 0.9 mm 2 mps 670 mmHg 87%
    16:00 +10°C° 0.9 mm 2 mps 670 mmHg 90%
    17:00 +9°C° 0.9 mm 2 mps 669 mmHg 92%
    18:00 +8°C° 0.9 mm 2 mps 669 mmHg 95%
    19:00 +7°C° 0.9 mm 2 mps 669 mmHg 97%
    20:00 +6°C° 0.6 mm 2 mps 669 mmHg 98%
    21:00 +5°C° 0.6 mm 2 mps 669 mmHg 98%
    22:00 +5°C° 0.6 mm 2 mps 669 mmHg 98%
    23:00 +5°C° 0.2 mm 2 mps 669 mmHg 98%

    Tomorrow, 26 April, Wednesday

    Time Temperature Precipitation Wind Pressure Humidity
    00:00 +5°C° 0.2 mm 2 mps 669 mmHg 98%
    01:00 +5°C° 0.2 mm 2 mps 669 mmHg 98%
    02:00 +5°C° 0.1 mm 2 mps 668 mmHg 98%
    03:00 +4°C° 0.1 mm 2 mps 668 mmHg 98%
    04:00 +4°C° 0.1 mm 2 mps 668 mmHg 98%
    05:00 +4°C° 0.2 mm 2 mps 668 mmHg 97%
    06:00 +4°C° 0.2 mm 2 mps 668 mmHg 97%
    07:00 +4°C° 0.2 mm 2 mps 669 mmHg 97%
    08:00 +5°C° 0.6 mm 2 mps 669 mmHg 97%
    09:00 +4°C° 0.6 mm 3 mps 669 mmHg 96%
    10:00 +4°C° 0.6 mm 3 mps 669 mmHg 96%
    11:00 +4°C° 0.8 mm 3 mps 669 mmHg 95%
    12:00 +4°C° 0.8 mm 3 mps 669 mmHg 95%
    13:00 +6°C° 0.8 mm 2 mps 669 mmHg 95%
    14:00 +5°C° 1.1 mm 2 mps 669 mmHg 95%
    15:00 +5°C° 1.1 mm 2 mps 669 mmHg 96%
    16:00 +5°C° 1.1 mm 2 mps 669 mmHg 97%
    17:00 +5°C° 1.8 mm 2 mps 669 mmHg 97%
    18:00 +4°C° 1.8 mm 2 mps 669 mmHg 98%
    19:00 +5°C° 1.8 mm 1 mps 669 mmHg 99%
    20:00 +4°C° 1.8 mm 1 mps 669 mmHg 99%
    21:00 +4°C° 1.8 mm 1 mps 669 mmHg 99%
    22:00 +4°C° 1.8 mm 1 mps 670 mmHg 99%
    23:00 +3°C° 2.4 mm 1 mps 670 mmHg 99%

    Day after tomorrow, 27 April, Thursday

    Time Temperature Precipitation Wind Pressure Humidity
    00:00 +3°C° 2.4 mm 1 mps 670 mmHg 99%
    01:00 +3°C° 2.4 mm 1 mps 670 mmHg 98%
    02:00 +2°C° 1.1 mm 1 mps 670 mmHg 98%
    03:00 +2°C° 1.1 mm 1 mps 670 mmHg 98%
    04:00 +2°C° 1.1 mm 1 mps 670 mmHg 97%
    05:00 +2°C° 0.3 mm 1 mps 670 mmHg 97%
    06:00 +3°C° 0.3 mm 1 mps 670 mmHg 98%
    07:00 +3°C° 0.3 mm 1 mps 670 mmHg 98%
    08:00 +4°C° 0.4 mm 1 mps 671 mmHg 97%
    09:00 +5°C° 0.4 mm 1 mps 671 mmHg 96%
    10:00 +5°C° 0.4 mm 1 mps 671 mmHg 96%
    11:00 +5°C° 1.3 mm 1 mps 671 mmHg 96%
    12:00 +5°C° 1.3 mm 1 mps 671 mmHg 96%
    13:00 +6°C° 1.3 mm 1 mps 671 mmHg 97%
    14:00 +5°C° 1.4 mm 1 mps 670 mmHg 97%
    15:00 +5°C° 1.4 mm 1 mps 670 mmHg 97%
    16:00 +4°C° 1.4 mm 2 mps 670 mmHg 97%
    17:00 +4°C° 1.5 mm 2 mps 670 mmHg 97%
    18:00 +3°C° 1.5 mm 2 mps 670 mmHg 98%
    19:00 +3°C° 1.5 mm 2 mps 670 mmHg 98%
    20:00 +3°C° 1.6 mm 2 mps 670 mmHg 99%
    21:00 +3°C° 1.6 mm 2 mps 670 mmHg 99%
    22:00 +2°C° 1.6 mm 2 mps 670 mmHg 99%
    23:00 +2°C° 1.5 mm 2 mps 670 mmHg 99%

    28 April, Friday

    Time Temperature Precipitation Wind Pressure Humidity
    00:00 +3°C° 1.5 mm 1 mps 670 mmHg 99%
    01:00 +3°C° 1.5 mm 1 mps 670 mmHg 99%
    02:00 +3°C° 1.1 mm 1 mps 669 mmHg 99%
    03:00 +3°C° 1.1 mm 1 mps 669 mmHg 99%
    04:00 +3°C° 1.1 mm 1 mps 669 mmHg 99%
    05:00 +3°C° 1.7 mm 1 mps 669 mmHg 99%
    06:00 +1°C° 1.7 mm 2 mps 669 mmHg 99%
    07:00 +1°C° 1.7 mm 2 mps 668 mmHg 99%
    08:00 +2°C° 1.5 mm 2 mps 669 mmHg 99%
    09:00 +2°C° 1.5 mm 2 mps 669 mmHg 98%
    10:00 +2°C° 1.5 mm 2 mps 670 mmHg 98%
    11:00 +2°C° 1.4 mm 2 mps 670 mmHg 98%
    12:00 +2°C° 1.4 mm 2 mps 670 mmHg 98%
    13:00 +2°C° 1.4 mm 2 mps 670 mmHg 98%
    14:00 +2°C° 1.1 mm 2 mps 670 mmHg 98%
    15:00 +2°C° 1.1 mm 2 mps 670 mmHg 98%
    16:00 +2°C° 1.1 mm 2 mps 671 mmHg 97%
    17:00 +1°C° 0.6 mm 2 mps 671 mmHg 97%
    18:00 +1°C° 0.6 mm 2 mps 671 mmHg 97%
    19:00 -1°C° 0.6 mm 2 mps 672 mmHg 97%
    20:00 -1°C° 0.3 mm 2 mps 672 mmHg 96%
    21:00 -2°C° 0.3 mm 2 mps 673 mmHg 96%
    22:00 -2°C° 0.3 mm 2 mps 673 mmHg 96%
    23:00 -2°C° 0.2 mm 2 mps 674 mmHg 95%

    29 April, Saturday

    Time Temperature Precipitation Wind Pressure Humidity
    00:00 -3°C° 0.2 mm 2 mps 674 mmHg 95%
    01:00 -3°C° 0.2 mm 2 mps 674 mmHg 94%
    02:00 -4°C° 0.1 mm 2 mps 674 mmHg 94%
    03:00 -4°C° 0.1 mm 2 mps 674 mmHg 94%
    04:00 -5°C° 0.1 mm 2 mps 674 mmHg 93%
    05:00 -4°C° 0 mm 2 mps 674 mmHg 93%
    06:00 -2°C° 0 mm 2 mps 675 mmHg 93%
    07:00 +1°C° 0 mm 1 mps 675 mmHg 92%
    08:00 +2°C° 0 mm 1 mps 675 mmHg 91%
    09:00 +4°C° 0 mm 1 mps 675 mmHg 91%
    10:00 +4°C° 0 mm 0 mps 675 mmHg 90%
    11:00 +5°C° 0 mm 1 mps 675 mmHg 89%
    12:00 +6°C° 0 mm 1 mps 675 mmHg 89%
    13:00 +6°C° 0 mm 1 mps 674 mmHg 89%
    14:00 +7°C° 0 mm 1 mps 674 mmHg 89%
    15:00 +7°C° 0 mm 1 mps 674 mmHg 89%
    16:00 +7°C° 0 mm 1 mps 674 mmHg 89%
    17:00 +6°C° 0 mm 1 mps 674 mmHg 91%
    18:00 +4°C° 0 mm 1 mps 673 mmHg 93%
    19:00 +3°C° 0 mm 1 mps 673 mmHg 95%
    20:00 +2°C° 0 mm 1 mps 673 mmHg 95%
    21:00 -1°C° 0 mm 2 mps 673 mmHg 95%
    22:00 -2°C° 0 mm 2 mps 674 mmHg 94%
    23:00 -2°C° 0 mm 2 mps 673 mmHg 93%

    30 April, Sunday

    Time Temperature Precipitation Wind Pressure Humidity
    00:00 -2°C° 0 mm 2 mps 673 mmHg 93%
    01:00 -3°C° 0 mm 2 mps 673 mmHg 92%
    02:00 -3°C° 0 mm 2 mps 673 mmHg 92%
    03:00 -3°C° 0 mm 2 mps 673 mmHg 92%
    04:00 -3°C° 0 mm 2 mps 673 mmHg 92%
    05:00 -1°C° 0 mm 2 mps 673 mmHg 91%
    06:00 +1°C° 0 mm 2 mps 673 mmHg 90%
    07:00 +3°C° 0 mm 2 mps 673 mmHg 89%
    08:00 +4°C° 0 mm 2 mps 673 mmHg 89%
    09:00 +6°C° 0 mm 2 mps 673 mmHg 88%
    10:00 +7°C° 0 mm 2 mps 673 mmHg 88%
    11:00 +8°C° 0 mm 2 mps 672 mmHg 87%
    12:00 +8°C° 0 mm 2 mps 672 mmHg 86%
    13:00 +9°C° 0 mm 2 mps 672 mmHg 85%
    14:00 +9°C° 0 mm 2 mps 671 mmHg 85%
    15:00 +9°C° 0 mm 2 mps 671 mmHg 85%
    16:00 +9°C° 0 mm 2 mps 671 mmHg 85%
    17:00 +8°C° 0 mm 2 mps 671 mmHg 87%
    18:00 +7°C° 0 mm 2 mps 671 mmHg 90%
    19:00 +6°C° 0 mm 2 mps 670 mmHg 92%
    20:00 +4°C° 0 mm 3 mps 670 mmHg 92%
    21:00 +3°C° 0 mm 3 mps 670 mmHg 91%
    22:00 +3°C° 0 mm 3 mps 671 mmHg 91%
    23:00 +2°C° 0 mm 3 mps 670 mmHg 90%
    Show more